Location: Helsinki
(60.1699°N, 24.9384°E)
Time: 23:47:46
(UTC+02:00)

Vanguard 2 Rocket - Pass Details

Date: 25 September 2023
Orbit: 553 x 3312 km, 32.9° (Epoch: 28 November)

Event Time Altitude Azimuth Distance (km) Brightness Sun altitude
Rises 17:54:22 0° 261° (W) 7,286 13.7 8.7°
Reaches altitude 10° 18:02:09 10° 245° (WSW) 6,079 13.6 7.8°
Maximum altitude 18:11:33 17° 214° (SW) 5,048 11.5 6.6°
Drops below altitude 10° 18:19:29 10° 182° (S) 4,979 10.9 5.7°
Sets 18:24:48 0° 163° (SSE) 5,468 10.8 5.0°
